Weather History for LEPA - August, 2013

Change the Weather History Date:

Tuesday, August 6, 2013

  Actual Average Record
Temperature  
Mean Temperature 84 °F -  
Max Temperature 98 °F 85 °F 98 °F (2003)
Min Temperature 70 °F 65 °F 62 °F (1998)
Cooling Degree Days 19    
Growing Degree Days 34 (Base 50)    
Moisture  
Dew Point 71 °F    
Average Humidity 71    
Maximum Humidity 89    
Minimum Humidity 28    
Precipitation  
Precipitation 0.00 in 0.03 in - ()
Sea Level Pressure  
Sea Level Pressure 29.92 in    
Wind  
Wind Speed 5 mph ()    
Max Wind Speed 18 mph    
Max Gust Speed 28 mph    
Visibility 7.5 miles    
Events      
Averages and records for this station are not official NWS values.
T = Trace of Precipitation, MM = Missing Value Source: Averaged Metar Reports

Daily Weather History Graph

Daily Weather History Graph

Search for Another Location

Airport or City:

Trip Planner

Search our weather history database for the weather conditions in past years. The results will help you decide how hot, cold, wet, or windy it might be!

Date:

Astronomy

Aug. 06, 2013 Rise Set
Actual Time 6:53 AM CEST 8:56 PM CEST
Civil Twilight 6:23 AM CEST 9:25 PM CEST
Nautical Twilight 5:47 AM CEST 10:01 PM CEST
Astronomical Twilight 5:07 AM CEST 10:40 PM CEST
Moon 6:29 AM CEST 8:22 PM CEST
Length of Visible Light 15h 02m
Length of Day
14h 03m
Waning Crescent, 0% of the Moon is Illuminated
Aug 6
Waning Crescent
Aug 6
New
Aug 14
First Quarter
Aug 21
Full
Aug 28
Last Quarter

Hourly Weather History & Observations

Time (CEST) Temp. Heat Index Dew Point Humidity Pressure Visibility Wind Dir Wind Speed Gust Speed Precip Events Conditions
12:00 AM 80.6 °F 85.4 °F 73.4 °F 79% 29.98 in 6.2 mi ESE 2.3 mph - N/A   Partly Cloudy
12:30 AM 77.0 °F - 71.6 °F 83% 29.98 in 6.2 mi Calm Calm - N/A   Partly Cloudy
1:00 AM 77.0 °F - 71.6 °F 83% 30.01 in 6.2 mi Variable 1.2 mph - N/A   Partly Cloudy
1:30 AM 77.0 °F - 71.6 °F 83% 30.01 in 6.2 mi Variable 1.2 mph - N/A   Partly Cloudy
2:00 AM 76 °F - 70 °F 78% 30.00 in 16 mi NNE 2.3 mph - -   Scattered Clouds
2:00 AM 77.0 °F - 71.6 °F 83% 29.98 in 6.2 mi Variable 2.3 mph - N/A   Partly Cloudy
2:30 AM 75.2 °F - 69.8 °F 83% 29.98 in 6.2 mi ENE 3.5 mph - N/A   Partly Cloudy
3:00 AM 75.2 °F - 69.8 °F 83% 29.95 in 6.2 mi ENE 8.1 mph - N/A   Partly Cloudy
3:30 AM 75.2 °F - 69.8 °F 83% 29.95 in 6.2 mi Variable 2.3 mph - N/A   Partly Cloudy
4:00 AM 75.2 °F - 69.8 °F 83% 29.95 in 6.2 mi Variable 2.3 mph - N/A   Partly Cloudy
4:30 AM 73.4 °F - 69.8 °F 88% 29.95 in 6.2 mi NE 3.5 mph - N/A   Partly Cloudy
5:00 AM 73.4 °F - 68.0 °F 83% 29.95 in 6.2 mi North 4.6 mph - N/A   Partly Cloudy
5:30 AM 73.4 °F - 66.2 °F 78% 29.95 in 6.2 mi Calm Calm - N/A   Partly Cloudy
6:00 AM 73.4 °F - 66.2 °F 78% 29.95 in 6.2 mi Variable 1.2 mph - N/A   Partly Cloudy
6:30 AM 71.6 °F - 66.2 °F 83% 29.95 in 6.2 mi Variable 1.2 mph - N/A   Partly Cloudy
7:00 AM 71.6 °F - 68.0 °F 88% 29.95 in 6.2 mi Variable 2.3 mph - N/A   Partly Cloudy
7:30 AM 71.6 °F - 66.2 °F 83% 29.95 in 6.2 mi Variable 2.3 mph - N/A   Partly Cloudy
8:00 AM 74 °F - 67 °F 71% 29.96 in 16 mi ENE 3.5 mph - -   Partly Cloudy
8:00 AM 73.4 °F - 68.0 °F 83% 29.95 in - NE 5.8 mph - N/A   Clear
8:30 AM 77.0 °F - 66.2 °F 69% 29.95 in - NNE 3.5 mph - N/A   Clear
9:00 AM 80.6 °F 83.2 °F 68.0 °F 65% 29.98 in - Variable 1.2 mph - N/A   Clear
9:30 AM 84.2 °F 89.6 °F 71.6 °F 66% 29.98 in - NE 3.5 mph - N/A   Clear
10:00 AM 86.0 °F 86.6 °F 62.6 °F 45% 29.95 in - NE 4.6 mph - N/A   Clear
10:30 AM 89.6 °F 92.2 °F 66.2 °F 46% 29.95 in - ENE 8.1 mph - N/A   Clear
11:00 AM 93.2 °F 94.1 °F 62.6 °F 36% 29.92 in - NE 8.1 mph - N/A   Clear
11:30 AM 95.0 °F 96.0 °F 62.6 °F 34% 29.92 in - ENE 6.9 mph - N/A   Clear
12:00 PM 96.8 °F 96.2 °F 59.0 °F 28% 29.92 in - ENE 6.9 mph - N/A   Clear
12:30 PM 91.4 °F 96.8 °F 69.8 °F 49% 29.92 in - SW 13.8 mph - N/A   Clear
1:00 PM 89.6 °F 98.2 °F 73.4 °F 59% 29.95 in - WSW 13.8 mph - N/A   Clear
1:30 PM 91.4 °F 100.1 °F 73.4 °F 55% 29.95 in - WSW 13.8 mph - N/A   Clear
2:00 PM 93 °F - 74 °F 45% 29.94 in 19 mi SW 18.4 mph - -   Scattered Clouds
2:00 PM 91.4 °F 102.5 °F 75.2 °F 59% 29.92 in - West 16.1 mph 27.6 mph N/A   Clear
2:30 PM 89.6 °F 98.2 °F 73.4 °F 59% 29.92 in - South 10.4 mph - N/A   Clear
3:00 PM 91.4 °F 100.1 °F 73.4 °F 55% 29.92 in - South 13.8 mph - N/A   Clear
3:30 PM 91.4 °F 98.4 °F 71.6 °F 52% 29.92 in - South 10.4 mph - N/A   Clear
4:00 PM 89.6 °F 99.8 °F 75.2 °F 62% 29.92 in - SSW 8.1 mph - N/A   Clear
4:30 PM 87.8 °F 99.7 °F 77.0 °F 70% 29.89 in - SW 13.8 mph - N/A   Clear
5:00 PM 87.8 °F 99.7 °F 77.0 °F 70% 29.89 in - WSW 15.0 mph - N/A   Clear
5:30 PM 87.8 °F 99.7 °F 77.0 °F 70% 29.89 in - WSW 12.7 mph - N/A   Clear
6:00 PM 87.8 °F 99.7 °F 77.0 °F 70% 29.86 in - WSW 10.4 mph - N/A   Clear
6:30 PM 86.0 °F 95.1 °F 75.2 °F 70% 29.86 in - WSW 10.4 mph - N/A   Clear
7:00 PM 84.2 °F 94.1 °F 77.0 °F 79% 29.86 in - WSW 11.5 mph - N/A   Clear
7:30 PM 84.2 °F 92.3 °F 75.2 °F 74% 29.86 in - WSW 10.4 mph - N/A   Clear
8:00 PM 84 °F - 76 °F 71% 29.86 in 16 mi WSW 4.6 mph - -   Clear
8:00 PM 84.2 °F 92.3 °F 75.2 °F 74% 29.86 in - WSW 3.5 mph - N/A   Clear
8:30 PM 82.4 °F 90.9 °F 77.0 °F 84% 29.83 in 6.2 mi WSW 1.2 mph - N/A   Partly Cloudy
9:00 PM 82.4 °F 90.9 °F 77.0 °F 84% 29.83 in 6.2 mi WSW 5.8 mph - N/A   Partly Cloudy
9:30 PM 80.6 °F 87.1 °F 77.0 °F 89% 29.86 in 5.0 mi West 8.1 mph - N/A   Partly Cloudy
10:00 PM 80.6 °F 87.1 °F 77.0 °F 89% 29.86 in 5.0 mi WSW 6.9 mph - N/A   Scattered Clouds
10:30 PM 80.6 °F 87.1 °F 77.0 °F 89% 29.86 in 5.0 mi South 3.5 mph - N/A   Scattered Clouds
11:00 PM 80.6 °F 86.2 °F 75.2 °F 84% 29.86 in 5.0 mi SSW 2.3 mph - N/A   Scattered Clouds
11:30 PM 82.4 °F 89.5 °F 75.2 °F 79% 29.86 in 5.0 mi SW 3.5 mph - N/A   Scattered Clouds